User: anonymous   Login
Location: Lafig�re
(44.4503°N, 4.0357°E)
Time: 05:21:38
(UTC+00:00)
Language:

Okean 1 Rocket - Orbit

View from above orbital plane
View from above orbital plane
View from above satellite
View from above satellite

Ground track
Ground track

The orbit data is extracted from the following two-line orbital elements,

1 19275U 88056B   21208.72304417  .00000084  00000-0  74512-5 0  9998
2 19275  82.5164   5.5832 0018725 303.3043  56.6377 14.82799066785752
Epoch (UTC): 27 July 2021 17:21:11
Eccentricity: 0.0018725
inclination: 82.5164°
perigee height: 607 km
apogee height: 633 km
right ascension of ascending node: 5.5832°
argument of perigee: 303.3043°
revolutions per day: 14.82799066
mean anomaly at epoch: 56.6377°
orbit number at epoch: 78575

The dashed part of the orbit path shows where the satellite is in the earth's shadow,  

DLR